Regional Weather Roundup
Issued by NWS

Home | Current Version | Previous Version | Text Only | Print | Product List | Glossary On
Versions: 1 2 3 4 5 6 7 8 9 10 11 12 13 14 15 16 17 18 19 20 21 22 23 24 25 26 27 28 29 30 31 32 33 34 35 36 37 38 39 40 41 42 43 44 45 46 47 48 49 50
000
ASUS43 KDMX 011507
RWRIA

WEATHER ROUNDUP FOR IOWA
NATIONAL WEATHER SERVICE DES MOINES IA
1000 AM CDT WED OCT 01 2014

NOTE: "FAIR" INDICATES FEW OR NO CLOUDS BELOW 12,000 FEET WITH NO
SIGNIFICANT WEATHER AND/OR OBSTRUCTIONS TO VISIBILITY.

* - THESE STATIONS ARE NOT NWS STATIONS...THUS NOT UNDER NWS
QUALITY CONTROL.  THEY ALSO DO NOT REPORT WEATHER SUCH
AS PRECIPITATION OR FOG.

IAZ001>003-012>014-020>022-031>034-043>046-011600-
   NORTHWEST IOWA

CITY           SKY/WX    TMP DP  RH WIND       PRES   REMARKS
CARROLL *      PTSUNNY   64  63  94 SW8       29.77S
CHEROKEE *     DRIZZLE   61  61 100 CALM      29.77R
DENISON *      CLOUDY    63  63 100 W6        29.76R
LE MARS *      SUNNY     64  61  88 CALM      29.76S
ORANGE CITY *  PTSUNNY   63  59  88 E3        29.75F FOG
SHELDON *      CLOUDY    61  61 100 SE5       29.76S FOG
SIOUX CITY     SUNNY     66  61  84 S5        29.75F
SPENCER        CLOUDY    57  55  93 E5        29.79R FOG
STORM LAKE *   PTSUNNY   64  63  94 W12       29.77S
$$

IAZ055>058-069>071-079>083-090>094-011600-
   SOUTHWEST IOWA

CITY           SKY/WX    TMP DP  RH WIND       PRES   REMARKS
ATLANTIC *     CLOUDY    64  63  94 SE9       29.76S
AUDUBON *      PTSUNNY   64  59  82 S10       29.78R
CLARINDA *     CLOUDY    66  64  94 S7G15     29.77S
COUNCIL BLFS * CLOUDY    64  64 100 SE7       29.76R
CRESTON *      CLOUDY    64  63  94 S12G18    29.79S
HARLAN  *      CLOUDY    66  64  94 S6        29.80R
LAMONI         CLOUDY    63  62  97 SE7       29.79F
RED OAK *      CLOUDY    66  64  94 SE3       29.76S
SHENANDOAH *   CLOUDY    66  64  94 CALM      29.76S
$$

IAZ047>049-059>061-072>074-084-011600-
   CENTRAL IOWA

CITY           SKY/WX    TMP DP  RH WIND       PRES   REMARKS
AMES           LGT RAIN  57  57 100 SE3       29.80F FOG
ANKENY *       CLOUDY    59  59 100 SE6       29.80S
CHARITON *     CLOUDY    61  59  94 S14G20    29.81R FOG
DES MOINES     CLOUDY    62  59  90 S9        29.80S FOG
GRINNELL*      CLOUDY    55  54  94 SE13      29.83R
KNOXVILLE *    CLOUDY    59  57  94 SE10G17   29.79S FOG
MARSHALLTOWN   CLOUDY    55  54  96 SE10      29.81S
PELLA *        CLOUDY    57  57 100 SE10G16   29.82S FOG
PERRY *        RAIN      61  61 100 SE10      29.78F
$$

IAZ004>006-015-016-023>025-035-036-011600-
   NORTH CENTRAL IOWA

CITY           SKY/WX    TMP DP  RH WIND       PRES   REMARKS
ALGONA *       DRIZZLE   55  55 100 SE9G17    29.79S
CLARION *      CLOUDY    55  55 100 SE10G18   29.80S
ESTHERVILLE    LGT RAIN  54  53  97 SE7       29.79S FOG
FORT DODGE *   CLOUDY    57  54  88 S6        29.80R
MASON CITY     CLOUDY    52  51  97 SE14      29.83S
FOREST CITY *  CLOUDY    52  52 100 SE12      29.81S
IOWA FALLS *   CLOUDY    54  52  94 SE10G17   29.82S
$$

IAZ007>011-017>019-026>030-037>042-050>054-066-011600-
   NORTHEAST IOWA

CITY           SKY/WX    TMP DP  RH WIND       PRES   REMARKS
CEDAR RAPIDS   PTSUNNY   54  52  94 E13       29.85F
CHARLES CITY * LGT RAIN  52  50  93 SE10      29.85R
CLINTON *      PTSUNNY   57  48  72 SE14      29.97S
DECORAH *      PTSUNNY   52  48  87 SE12      29.88F
DUBUQUE        CLOUDY    54  48  82 SE8       29.93F
MONTICELLO *   MOSUNNY   57  50  77 SE12G18   29.92S
OELWEIN *      MOSUNNY   54  50  87 SE15G21   29.84F
WATERLOO       CLOUDY    53  51  93 SE12      29.82F
$$

IAZ064-065-067-068-078-011600-
   EAST CENTRAL IOWA

CITY           SKY/WX    TMP DP  RH WIND       PRES   REMARKS
IOWA CITY      CLOUDY    57  51  80 E13       29.87F
MT. PLEASANT * CLOUDY    59  52  77 SW5       29.92R
MUSCATINE *    MOSUNNY   61  50  67 SE9       29.91F
$$

IAZ062-063-075>077-085>089-095>099-011600-
   SOUTHEAST IOWA

CITY           SKY/WX    TMP DP  RH WIND       PRES   REMARKS
BURLINGTON     CLOUDY    61  54  77 SE6       29.90F
FAIRFIELD *    LGT RAIN  55  52  88 S9G15     29.90R
FORT MADISON * CLOUDY    63  54  72 SE7       29.91R HAZE
KEOKUK *       PTSUNNY   61  55  82 SE6       29.90R
OSKALOOSA *    LGT RAIN  55  55 100 SE15G22   29.83F
CENTERVILLE *  LGT RAIN  59  59 100 SE7G17    29.84R
OTTUMWA        LGT RAIN  57  54  89 SE13G24   29.80F FOG
WASHINGTON *   CLOUDY    57  52  82 SE9       29.90F
$$

ABBREVIATIONS USED IN REMARKS
   TC - TEMPERATURES IN CELSIUS
  WCI - WIND CHILL INDEX
   HX - HEAT INDEX
  VSB - VISIBILITY
$$



USA.gov is the U.S. government's official web portal to all federal, state and local government web resources and services.